This is the latest recevied weather packets stored in our database for station/object EA1CUE-WX. If no packets are shown the sender has not sent any weather packets the latest 10 day(s).
| Time | Temp. | Humidity | Pressure | Rain* | Wind** | Luminosity | Snow |
|---|---|---|---|---|---|---|---|
| 1777728225 | 11.11° C | 1% | 1014.6 hPa | 0 mm | - | - | - |
| 1777727925 | 11.11° C | 1% | 1014.7 hPa | 0 mm | - | - | - |
| 1777727625 | 11.11° C | 1% | 1014.7 hPa | 0 mm | - | - | - |
| 1777727325 | 10.56° C | 1% | 1014.7 hPa | 0 mm | - | - | - |
| 1777727025 | 10.56° C | 1% | 1014.9 hPa | 0 mm | - | - | - |
| 1777726725 | 10.56° C | 1% | 1014.7 hPa | 0 mm | - | - | - |
| 1777726425 | 10.56° C | 1% | 1014.8 hPa | 0.25 mm | - | - | - |
| 1777726125 | 10.56° C | 1% | 1014.7 hPa | 0.76 mm | - | - | - |
| 1777725825 | 10.56° C | 1% | 1014.7 hPa | 1.02 mm | - | - | - |
| 1777725525 | 10.56° C | 1% | 1014.6 hPa | 1.78 mm | - | - | - |
| 1777725225 | 10.56° C | 6% | 1014.5 hPa | 2.03 mm | - | - | - |
| 1777724925 | 10.56° C | 19% | 1014.3 hPa | 2.54 mm | - | - | - |
| 1777724625 | 11.11° C | 28% | 1014.2 hPa | 2.79 mm | - | - | - |
| 1777724325 | 11.11° C | 32% | 1014.1 hPa | 3.05 mm | - | - | - |
| 1777724025 | 10.56° C | 28% | 1014 hPa | 3.3 mm | - | - | - |
| 1777723725 | 10.56° C | 24% | 1013.8 hPa | 3.3 mm | - | - | - |
| 1777723425 | 10° C | 2% | 1013.7 hPa | 3.05 mm | - | - | - |
| 1777723125 | 10° C | 1% | 1013.9 hPa | 3.05 mm | - | - | - |
| 1777722825 | 10° C | 1% | 1014.3 hPa | 3.56 mm | - | - | - |
| 1777722525 | 10° C | 1% | 1014.3 hPa | 4.32 mm | - | - | - |
| 1777722225 | 10° C | 1% | 1014.3 hPa | 4.06 mm | - | - | - |
| 1777721925 | 10° C | 1% | 1014.4 hPa | 3.56 mm | - | - | - |
| 1777721625 | 10° C | 1% | 1014.5 hPa | 3.05 mm | - | - | - |
| 1777721325 | 10.56° C | 1% | 1014.5 hPa | 2.79 mm | - | - | - |
| 1777721025 | 10.56° C | 1% | 1014.4 hPa | 2.29 mm | - | - | - |
* Rain latest hour (hover to see other rain measurements)
** Current wind speed in m/s (hover to see current wind gust speed)